Location: Unspecified
(0.0000°N, 0.0000°E)
Time: 05:48:30
(UTC+00:00)

XW-2F - Pass Details

Date: 14 July 2020
Orbit: 501 x 522 km, 97.5° (Epoch: 13 August)

Event Time Altitude Azimuth Distance (km) Brightness Sun altitude
Rises 04:56:06 0° 41° (NE) 2,612 ? -16.2°
Reaches altitude 10° 04:58:55 10° 65° (ENE) 1,725 ? -15.5°
Maximum altitude 05:01:05 15° 101° (ESE) 1,437 ? -15.0°
Drops below altitude 10° 05:03:15 10° 137° (SE) 1,723 ? -14.5°
Sets 05:06:03 0° 161° (SSE) 2,607 ? -13.9°
